Montpelier, VT

7:40 PM EST on November 17, 2019 (GMT -0500)
Knapp State

Weather History for KMPV - August, 2019

Change the Weather History Date:

Tuesday, August 20, 2019

  Actual Average Record
Temperature  
Mean Temperature 68 °F 65 °F  
Max Temperature 81 °F 77 °F 87 °F (1955)
Min Temperature 56 °F 53 °F 39 °F (1953)
Degree Days  
Heating Degree Days 0 2  
Month to date heating degree days 20 36  
Since 1 June heating degree days 173 197  
Since 1 July heating degree days 29 76  
Cooling Degree Days 4 2  
Month to date cooling degree days 44 56  
Year to date cooling degree days 202 224  
Since 1 June cooling degree days 201 214  
Growing Degree Days 18 (Base 50)    
Moisture  
Dew Point 55 °F    
Average Humidity 65    
Maximum Humidity 96    
Minimum Humidity 39    
Precipitation  
Precipitation 0.00 in 0.12 in 1.09 in (2006)
Month to date precipitation 3.11 2.86  
Year to date precipitation 33.66 23.65  
Sea Level Pressure  
Sea Level Pressure 30.10 in    
Wind  
Wind Speed 2 mph ()    
Max Wind Speed 10 mph    
Max Gust Speed 14 mph    
Visibility 9.6 miles    
Events      
T = Trace of Precipitation, MM = Missing Value Source: Averaged Metar Reports

Daily Weather History Graph

Daily Weather History Graph

Search for Another Location

Airport or City:

Astronomy

Aug. 20, 2019 Rise Set
Actual Time 5:59 AM EDT 7:47 PM EDT
Civil Twilight 5:28 AM EDT 8:18 PM EDT
Nautical Twilight 4:50 AM EDT 8:55 PM EDT
Astronomical Twilight 4:09 AM EDT 9:36 PM EDT
Moon 10:24 PM EDT (8/20) 10:43 AM EDT (8/20)
Length of Visible Light 14h 49m
Length of Day
13h 48m
Waning Gibbous, 78% of the Moon is Illuminated
Aug 20
Waning Gibbous
Aug 23
Last Quarter
Aug 30
New
Sep 5
First Quarter
Sep 14
Full

Hourly Weather History & Observations

Time (EDT) Temp. Dew Point Humidity Pressure Visibility Wind Dir Wind Speed Gust Speed Precip Events Conditions
12:51 AM 63.0 °F 57.9 °F 84% 30.05 in 10.0 mi Calm Calm - N/A   Clear
1:51 AM 66.9 °F 57.0 °F 70% 30.06 in 10.0 mi West 8.1 mph - N/A   Clear
2:51 AM 61.0 °F 55.9 °F 83% 30.07 in 10.0 mi Calm Calm - N/A   Clear
3:51 AM 62.1 °F 55.9 °F 80% 30.08 in 10.0 mi West 4.6 mph - N/A   Clear
4:51 AM 61.0 °F 55.9 °F 83% 30.09 in 10.0 mi West 3.5 mph - N/A   Clear
5:51 AM 57.0 °F 55.9 °F 96% 30.11 in 10.0 mi East 3.5 mph - N/A   Clear
6:51 AM 57.9 °F 55.9 °F 93% 30.13 in 10.0 mi Calm Calm - N/A   Clear
7:51 AM 63.0 °F 57.9 °F 84% 30.14 in 10.0 mi Calm Calm - N/A   Clear
8:51 AM 66.0 °F 57.9 °F 75% 30.15 in 10.0 mi Calm Calm - N/A   Clear
9:51 AM 70.0 °F 55.9 °F 61% 30.14 in 10.0 mi Calm Calm - N/A   Clear
10:21 AM 71.1 °F 55.0 °F 57% 30.16 in 1.2 mi Calm Calm - N/A   Haze
10:29 AM 72.0 °F 55.9 °F 57% 30.16 in 10.0 mi Calm Calm - N/A   Clear
10:51 AM 73.0 °F 54.0 °F 51% 30.14 in 10.0 mi East 4.6 mph - N/A   Clear
11:51 AM 73.9 °F 51.1 °F 45% 30.14 in 10.0 mi Calm Calm - N/A   Clear
12:51 PM 75.9 °F 52.0 °F 43% 30.12 in 10.0 mi SW 8.1 mph - N/A   Clear
1:51 PM 79.0 °F 52.0 °F 39% 30.10 in 10.0 mi East 4.6 mph - N/A   Clear
2:51 PM 79.0 °F 55.0 °F 44% 30.11 in 10.0 mi NW 5.8 mph - N/A   Clear
4:51 PM 79.0 °F 55.0 °F 44% 30.09 in 10.0 mi WSW 5.8 mph - N/A   Clear
5:51 PM 78.1 °F 51.1 °F 39% 30.08 in 10.0 mi WSW 3.5 mph - N/A   Clear
6:51 PM 75.0 °F 57.0 °F 53% 30.06 in 10.0 mi SSW 4.6 mph - N/A   Clear
7:51 PM 68.0 °F 57.0 °F 68% 30.07 in 10.0 mi SW 3.5 mph - N/A   Clear
8:51 PM 70.0 °F 51.1 °F 51% 30.07 in 10.0 mi SSW 4.6 mph - N/A   Clear
9:51 PM 64.0 °F 57.0 °F 78% 30.09 in 10.0 mi Variable 4.6 mph - N/A   Clear
10:51 PM 60.1 °F 55.0 °F 83% 30.08 in 10.0 mi Calm Calm - N/A   Clear